Fort Wayne, IN

11:02 PM EDT on August 24, 2019 (GMT -0400)
Fort Wayne International

Weather History for KFWA - June, 2019

Change the Weather History Date:

Wednesday, June 5, 2019

  Actual Average Record
Temperature  
Mean Temperature 74 °F -  
Max Temperature 83 °F - 97 °F (1925)
Min Temperature 65 °F - 41 °F (1954)
Cooling Degree Days 9    
Month to date cooling degree days 19  
Year to date cooling degree days 87  
Since 1 June cooling degree days 19  
Growing Degree Days 24 (Base 50)    
Moisture  
Dew Point 64 °F    
Average Humidity 71    
Maximum Humidity 84    
Minimum Humidity 57    
Precipitation  
Precipitation T in - 1.89 in (2000)
Month to date precipitation 0.24  
Year to date precipitation 18.11  
Sea Level Pressure  
Sea Level Pressure 29.75 in    
Wind  
Wind Speed 11 mph (SW)    
Max Wind Speed 28 mph    
Max Gust Speed 38 mph    
Visibility 10 miles    
Events Rain , Thunderstorm    
T = Trace of Precipitation, MM = Missing Value Source: NWS Daily Summary

Daily Weather History Graph

Daily Weather History Graph

Search for Another Location

Airport or City:

Astronomy

Jun. 05, 2019 Rise Set
Actual Time 6:09 AM EDT 9:09 PM EDT
Civil Twilight 5:36 AM EDT 9:42 PM EDT
Nautical Twilight 4:54 AM EDT 10:24 PM EDT
Astronomical Twilight 4:05 AM EDT 11:13 PM EDT
Moon 8:14 AM EDT (6/5) 11:35 PM EDT (6/5)
Length of Visible Light 16h 05m
Length of Day
14h 59m
Waxing Crescent, 6% of the Moon is Illuminated
Jun 5
Waxing Crescent
Jun 10
First Quarter
Jun 17
Full
Jun 25
Last Quarter
Jul 2
New

Hourly Weather History & Observations

Time (EDT) Temp. Heat Index Dew Point Humidity Pressure Visibility Wind Dir Wind Speed Gust Speed Precip Events Conditions
12:54 AM 66.0 °F - 53.1 °F 63% 29.84 in 10.0 mi South 4.6 mph - N/A   Mostly Cloudy
1:54 AM 69.1 °F - 54.0 °F 58% 29.83 in 10.0 mi South 9.2 mph - N/A   Overcast
2:54 AM 69.1 °F - 55.9 °F 63% 29.80 in 10.0 mi South 11.5 mph - N/A   Overcast
3:54 AM 69.1 °F - 57.9 °F 68% 29.78 in 10.0 mi SSW 8.1 mph - N/A   Overcast
4:54 AM 68.0 °F - 60.1 °F 76% 29.77 in 10.0 mi SSW 9.2 mph - N/A   Overcast
5:54 AM 68.0 °F - 62.1 °F 81% 29.76 in 10.0 mi SW 9.2 mph - N/A   Mostly Cloudy
6:03 AM 69.1 °F - 62.1 °F 78% 29.78 in 10.0 mi SW 9.2 mph - N/A Thunderstorm Thunderstorm
6:21 AM 70.0 °F - 63.0 °F 78% 29.80 in 10.0 mi SW 8.1 mph - N/A   Overcast
6:54 AM 70.0 °F - 63.0 °F 78% 29.78 in 10.0 mi West 6.9 mph - N/A   Overcast
7:54 AM 70.0 °F - 64.0 °F 81% 29.78 in 10.0 mi SW 5.8 mph - N/A   Mostly Cloudy
8:27 AM 71.1 °F - 64.9 °F 81% 29.78 in 10.0 mi SSW 11.5 mph - N/A   Mostly Cloudy
8:54 AM 72.0 °F - 64.9 °F 78% 29.76 in 10.0 mi SW 13.8 mph - N/A   Mostly Cloudy
9:54 AM 73.9 °F - 64.9 °F 73% 29.73 in 10.0 mi WSW 17.3 mph 23.0 mph N/A   Mostly Cloudy
10:54 AM 78.1 °F - 66.9 °F 68% 29.71 in 10.0 mi SW 18.4 mph 27.6 mph N/A   Scattered Clouds
11:54 AM 78.1 °F - 66.0 °F 66% 29.73 in 10.0 mi SW 16.1 mph - N/A   Mostly Cloudy
12:54 PM 79.0 °F - 66.9 °F 66% 29.75 in 10.0 mi West 17.3 mph 24.2 mph N/A   Mostly Cloudy
1:35 PM 78.1 °F - 66.9 °F 68% 29.75 in 10.0 mi West 11.5 mph - N/A   Mostly Cloudy
1:54 PM 80.1 °F 82.7 °F 68.0 °F 67% 29.73 in 10.0 mi West 12.7 mph - N/A   Scattered Clouds
2:54 PM 81.0 °F 83.8 °F 68.0 °F 65% 29.72 in 10.0 mi WSW 13.8 mph - N/A   Mostly Cloudy
3:18 PM 81.0 °F 83.8 °F 68.0 °F 65% 29.74 in 10.0 mi West 13.8 mph 25.3 mph N/A Thunderstorm Thunderstorm
3:46 PM 79.0 °F - 68.0 °F 69% 29.74 in 10.0 mi WSW 15.0 mph - N/A   Mostly Cloudy
3:54 PM 79.0 °F - 68.0 °F 69% 29.72 in 10.0 mi WSW 13.8 mph - N/A   Mostly Cloudy
4:54 PM 82.0 °F 85.9 °F 70.0 °F 67% 29.71 in 10.0 mi WSW 17.3 mph - N/A   Overcast
5:54 PM 82.0 °F 85.5 °F 69.1 °F 65% 29.70 in 10.0 mi WSW 13.8 mph - N/A   Mostly Cloudy
6:39 PM 81.0 °F 83.8 °F 68.0 °F 65% 29.71 in 10.0 mi WSW 11.5 mph - 0.00 in Thunderstorm Thunderstorm
6:54 PM 80.1 °F 82.9 °F 69.1 °F 69% 29.69 in 10.0 mi West 15.0 mph 20.7 mph 0.00 in Rain , Thunderstorm Light Thunderstorms and Rain
7:13 PM 70.0 °F - 63.0 °F 78% 29.73 in 8.0 mi South 10.4 mph 38.0 mph 0.00 in Rain , Thunderstorm Light Thunderstorms and Rain
7:27 PM 73.0 °F - 64.9 °F 76% 29.73 in 10.0 mi SW 5.8 mph - 0.00 in   Mostly Cloudy
7:54 PM 75.0 °F - 66.9 °F 76% 29.72 in 10.0 mi SW 4.6 mph - 0.00 in   Mostly Cloudy
8:54 PM 75.9 °F - 62.1 °F 62% 29.71 in 10.0 mi NNW 9.2 mph - N/A   Mostly Cloudy
9:54 PM 73.9 °F - 62.1 °F 66% 29.76 in 10.0 mi NW 3.5 mph - N/A   Mostly Cloudy
10:54 PM 71.1 °F - 61.0 °F 70% 29.80 in 10.0 mi Calm Calm - N/A   Mostly Cloudy
11:54 PM 66.9 °F - 61.0 °F 81% 29.81 in 10.0 mi West 4.6 mph - N/A   Mostly Cloudy